BAW9103 EGFF-EGLL

Flight info

Callsign BAW9103
Flight time 0h 26m
Altitude 13000
Route SIRIC
Aircraft B77W/H-V/N

Departure

Time 2026-04-30 14:01
Airport Cardiff International Airport (EGFF)

Arrival

Time 2026-04-30 14:28
Airport London Heathrow Airport (EGLL)
Time Latitude Longitude Altitude Speed Heading
2026-04-30 14:01 51.39878 -3.35007 228 ft 120 kts 116°
2026-04-30 14:01 51.39352 -3.33345 1289 ft 178 kts 116°
2026-04-30 14:02 51.38879 -3.31595 3405 ft 176 kts 108°
2026-04-30 14:02 51.38750 -3.29436 4010 ft 220 kts 95°
2026-04-30 14:02 51.38712 -3.26791 4884 ft 248 kts 96°
2026-04-30 14:02 51.38673 -3.24191 6171 ft 256 kts 96°
2026-04-30 14:03 51.38631 -3.21326 7560 ft 263 kts 96°
2026-04-30 14:03 51.38584 -3.18330 8794 ft 279 kts 95°
2026-04-30 14:03 51.38526 -3.15155 9492 ft 313 kts 95°
2026-04-30 14:03 51.38453 -3.11464 10012 ft 350 kts 95°
2026-04-30 14:04 51.38378 -3.07485 11164 ft 361 kts 95°
2026-04-30 14:04 51.38303 -3.03441 12398 ft 366 kts 95°
2026-04-30 14:04 51.38225 -2.99392 13078 ft 370 kts 96°
2026-04-30 14:04 51.38142 -2.95266 13125 ft 372 kts 96°
2026-04-30 14:05 51.38056 -2.91081 13125 ft 370 kts 96°
2026-04-30 14:05 51.37968 -2.87022 13111 ft 369 kts 96°
2026-04-30 14:05 51.37879 -2.82973 13116 ft 367 kts 96°
2026-04-30 14:05 51.37786 -2.78849 13153 ft 366 kts 96°
2026-04-30 14:06 51.37692 -2.74782 13149 ft 365 kts 96°
2026-04-30 14:06 51.37501 -2.66656 13163 ft 365 kts 96°
2026-04-30 14:07 51.37300 -2.58506 13164 ft 367 kts 96°
2026-04-30 14:07 51.37200 -2.54425 13158 ft 367 kts 96°
2026-04-30 14:07 51.37095 -2.50335 13149 ft 368 kts 96°
2026-04-30 14:08 51.36886 -2.42163 13150 ft 367 kts 96°
2026-04-30 14:08 51.36776 -2.38082 13141 ft 367 kts 96°
2026-04-30 14:08 51.36555 -2.29903 13145 ft 368 kts 96°
2026-04-30 14:09 51.36443 -2.25810 13146 ft 369 kts 96°
2026-04-30 14:09 51.36330 -2.21710 13146 ft 369 kts 96°
2026-04-30 14:09 51.36099 -2.13489 13142 ft 370 kts 96°
2026-04-30 14:10 51.35981 -2.09384 13147 ft 370 kts 96°
2026-04-30 14:10 51.35862 -2.05274 13149 ft 370 kts 96°
2026-04-30 14:10 51.35743 -2.01213 13149 ft 369 kts 96°
2026-04-30 14:10 51.35624 -1.97262 13142 ft 369 kts 96°
2026-04-30 14:11 51.35501 -1.93152 13152 ft 369 kts 96°
2026-04-30 14:11 51.35377 -1.89056 13135 ft 369 kts 96°
2026-04-30 14:11 51.35249 -1.84956 13149 ft 369 kts 96°
2026-04-30 14:11 51.35120 -1.80845 13156 ft 370 kts 96°
2026-04-30 14:12 51.34991 -1.76725 13154 ft 371 kts 96°
2026-04-30 14:12 51.34860 -1.72604 13155 ft 371 kts 96°
2026-04-30 14:12 51.34728 -1.68488 13153 ft 371 kts 96°
2026-04-30 14:12 51.34593 -1.64358 13151 ft 371 kts 96°
2026-04-30 14:13 51.34457 -1.60232 13149 ft 371 kts 96°
2026-04-30 14:13 51.34316 -1.56106 13150 ft 371 kts 97°
2026-04-30 14:13 51.34068 -1.52012 13154 ft 370 kts 99°
2026-04-30 14:13 51.33748 -1.47935 13154 ft 370 kts 99°
2026-04-30 14:14 51.33542 -1.43828 13150 ft 371 kts 95°
2026-04-30 14:14 51.33452 -1.39703 13142 ft 371 kts 94°
2026-04-30 14:14 51.33378 -1.35578 13148 ft 371 kts 94°
2026-04-30 14:14 51.33289 -1.31476 12898 ft 367 kts 95°
2026-04-30 14:15 51.33181 -1.27416 12294 ft 364 kts 95°
2026-04-30 14:15 51.33060 -1.23390 11593 ft 362 kts 96°
2026-04-30 14:15 51.32934 -1.19377 10878 ft 360 kts 96°
2026-04-30 14:15 51.32808 -1.15402 10202 ft 359 kts 96°
2026-04-30 14:16 51.32688 -1.11472 9519 ft 356 kts 96°
2026-04-30 14:16 51.32571 -1.07543 8872 ft 352 kts 96°
2026-04-30 14:16 51.32454 -1.03655 8264 ft 347 kts 96°
2026-04-30 14:16 51.32338 -0.99925 7820 ft 340 kts 96°
2026-04-30 14:17 51.32230 -0.96336 7724 ft 323 kts 96°
2026-04-30 14:17 51.32124 -0.92876 7564 ft 310 kts 96°
2026-04-30 14:17 51.32073 -0.89452 7384 ft 300 kts 92°
2026-04-30 14:17 51.32150 -0.86172 7179 ft 288 kts 89°
2026-04-30 14:18 51.32676 -0.83176 6997 ft 286 kts 65°
2026-04-30 14:18 51.33998 -0.80806 6809 ft 288 kts 38°
2026-04-30 14:18 51.37821 -0.79812 6413 ft 287 kts 343°
2026-04-30 14:19 51.40608 -0.83907 5910 ft 273 kts 285°
2026-04-30 14:19 51.40924 -0.86801 5687 ft 256 kts 274°
2026-04-30 14:19 51.41580 -0.89402 5431 ft 256 kts 305°
2026-04-30 14:20 51.42953 -0.91131 5244 ft 249 kts 339°
2026-04-30 14:20 51.44588 -0.91470 5092 ft 231 kts 15°
2026-04-30 14:20 51.46551 -0.88597 4916 ft 182 kts 79°
2026-04-30 14:21 51.46891 -0.86585 4662 ft 189 kts 84°
2026-04-30 14:21 51.47129 -0.84533 4439 ft 185 kts 88°
2026-04-30 14:21 51.47450 -0.80510 3967 ft 181 kts 90°
2026-04-30 14:22 51.47515 -0.78512 3752 ft 178 kts 92°
2026-04-30 14:22 51.47561 -0.74698 3278 ft 158 kts 92°
2026-04-30 14:22 51.47571 -0.73060 3082 ft 137 kts 93°
2026-04-30 14:23 51.47591 -0.70371 2803 ft 118 kts 94°
2026-04-30 14:23 51.47607 -0.67714 2439 ft 114 kts 92°
2026-04-30 14:24 51.47622 -0.65166 2170 ft 116 kts 93°
2026-04-30 14:24 51.47631 -0.63905 1993 ft 109 kts 93°
2026-04-30 14:25 51.47648 -0.61380 1708 ft 114 kts 92°
2026-04-30 14:25 51.47662 -0.58863 1421 ft 112 kts 91°
2026-04-30 14:26 51.47682 -0.56346 1092 ft 112 kts 93°
2026-04-30 14:26 51.47690 -0.55085 921 ft 113 kts 92°
2026-04-30 14:26 51.47710 -0.52434 602 ft 117 kts 87°
2026-04-30 14:27 51.47729 -0.51161 458 ft 110 kts 86°
2026-04-30 14:27 51.47751 -0.49890 319 ft 120 kts 89°
2026-04-30 14:27 51.47752 -0.48574 159 ft 114 kts 90°
2026-04-30 14:28 51.47758 -0.46582 97 ft 44 kts 90°
2026-04-30 14:28 51.47759 -0.46338 95 ft 13 kts 90°
2026-04-30 14:28 51.47726 -0.46166 95 ft 19 kts 139°
2026-04-30 14:28 51.47619 -0.46070 95 ft 15 kts 182°
2026-04-30 14:29 51.47593 -0.46337 94 ft 15 kts 270°
2026-04-30 14:29 51.47592 -0.46651 91 ft 19 kts 270°
2026-04-30 14:30 51.47582 -0.47293 95 ft 25 kts 270°
2026-04-30 14:31 51.47580 -0.47894 94 ft 28 kts 270°
2026-04-30 14:31 51.47570 -0.48329 94 ft 13 kts 244°
2026-04-30 14:31 51.47493 -0.48358 94 ft 12 kts 180°
2026-04-30 14:32 51.47342 -0.48357 94 ft 13 kts 179°
2026-04-30 14:32 51.47273 -0.48392 94 ft 10 kts 246°
2026-04-30 14:32 51.47240 -0.48474 94 ft 10 kts 191°
2026-04-30 14:33 51.47165 -0.48472 94 ft 12 kts 179°
2026-04-30 14:33 51.47054 -0.48409 94 ft 7 kts 104°
2026-04-30 14:33 51.47064 -0.48352 94 ft 7 kts 48°
2026-04-30 14:34 51.47094 -0.48348 93 ft 5 kts 354°
2026-04-30 14:34 51.47113 -0.48307 94 ft 5 kts 86°
2026-04-30 14:34 51.47114 -0.48246 92 ft 6 kts 89°
2026-04-30 14:34 51.47114 -0.48231 91 ft 0 kts 89°